FW3224 Weather Reports


time (UTC)temp
F
wind
direction
speed
knots
gust
knots
rain 1hr
in
rain 24hr
in
rain mn
in
humidity
%
barometer
mb
20260903152042 62 144 0.0 2.6 0.00 0.00 0.00 62 1018.9
20260903151540 62 146 0.9 3.5 0.00 0.00 0.00 62 1018.7
20260903151037 63 193 0.0 6.1 0.00 0.00 0.00 62 1018.6
20260903150540 63 167 1.7 6.1 0.00 0.00 0.00 61 1018.6
20260903150035 63 219 1.7 7.0 0.00 0.00 0.00 61 1018.5
20260903145537 63 209 1.7 6.1 0.00 0.00 0.00 61 1018.5
20260903145037 63 213 1.7 7.8 0.00 0.00 0.00 61 1018.4
20260903144535 63 213 2.6 7.8 0.00 0.00 0.00 61 1018.3
20260903144036 63 213 0.9 7.8 0.00 0.00 0.00 61 1018.4
20260903143536 63 199 2.6 7.8 0.00 0.00 0.00 60 1018.4
20260903143042 63 219 2.6 5.2 0.00 0.00 0.00 60 1018.4
20260903142532 63 220 1.7 4.3 0.00 0.00 0.00 60 1018.2
20260903142032 63 199 0.9 4.3 0.00 0.00 0.00 60 1018.3
20260903141537 63 190 0.9 4.3 0.00 0.00 0.00 60 1018.2
20260903141028 63 240 0.0 4.3 0.00 0.00 0.00 60 1018.1
20260903140527 63 237 1.7 4.3 0.00 0.00 0.00 60 1018.1
20260903140028 63 244 2.6 5.2 0.00 0.00 0.00 60 1018.0
20260903135526 63 208 1.7 4.3 0.00 0.00 0.00 60 1017.9
20260903135026 63 190 0.9 4.3 0.00 0.00 0.00 60 1017.9
20260903134526 63 259 0.9 5.2 0.00 0.00 0.00 60 1017.8
20260903134025 63 210 1.7 5.2 0.00 0.00 0.00 60 1017.7
20260903133525 64 217 0.9 3.5 0.00 0.00 0.00 59 1017.7
20260903133026 64 198 1.7 4.3 0.00 0.00 0.00 58 1017.9
20260903132526 64 211 0.0 2.6 0.00 0.00 0.00 58 1017.9
20260903132024 65 214 0.0 2.6 0.00 0.00 0.00 58 1017.8
20260903131523 65 237 0.9 4.3 0.00 0.00 0.00 58 1017.7
20260903131025 65 198 0.9 4.3 0.00 0.00 0.00 58 1017.6
20260903130525 65 249 2.6 4.3 0.00 0.00 0.00 58 1017.5
20260903130022 65 255 1.7 3.5 0.00 0.00 0.00 59 1017.6
20260903125521 65 254 0.0 4.3 0.00 0.00 0.00 56 1017.6
20260903125024 66 254 0.9 6.1 0.00 0.00 0.00 55 1017.5
20260903124519 66 236 2.6 6.1 0.00 0.00 0.00 55 1017.3
20260903124020 66 244 2.6 6.1 0.00 0.00 0.00 54 1017.2
20260903123518 66 274 3.5 5.2 0.00 0.00 0.00 53 1017.1
20260903123018 66 244 1.7 4.3 0.00 0.00 0.00 52 1017.1
20260903122518 66 273 1.7 2.6 0.00 0.00 0.00 52 1017.1
20260903122017 67 267 0.9 3.5 0.00 0.00 0.00 51 1017.1
20260903121516 67 273 1.7 6.1 0.00 0.00 0.00 51 1016.9
20260903121015 67 254 2.6 6.1 0.00 0.00 0.00 51 1016.8
20260903120515 67 252 1.7 4.3 0.00 0.00 0.00 51 1016.8
20260903120015 67 254 2.6 4.3 0.00 0.00 0.00 51 1016.8
20260903115515 67 271 0.9 1.7 0.00 0.00 0.00 51 1016.9
20260903115015 68 293 0.0 0.9 0.00 0.00 0.00 50 1016.8
20260903114515 68 293 0.0 6.1 0.00 0.00 0.00 50 1016.9
20260903114013 68 293 1.7 7.0 0.00 0.00 0.00 49 1016.7
20260903113512 68 283 3.5 7.8 0.00 0.00 0.00 48 1016.6
20260903113012 69 263 3.5 7.8 0.00 0.00 0.00 48 1016.4
20260903112511 69 288 3.5 7.0 0.00 0.00 0.00 47 1016.3
20260903112010 69 277 4.3 7.0 0.00 0.00 0.00 47 1016.2
20260903111513 69 262 3.5 7.0 0.00 0.00 0.00 47 1016.2
20260903111009 69 261 2.6 7.0 0.00 0.00 0.00 47 1016.2
20260903110511 70 248 1.7 7.8 0.00 0.00 0.00 46 1016.1
20260903110010 70 257 2.6 7.8 0.00 0.00 0.00 46 1016.0
20260903105507 70 238 3.5 7.8 0.00 0.00 0.00 46 1015.9
20260903105006 70 269 3.5 7.8 0.00 0.00 0.00 46 1015.9
20260903104509 70 246 3.5 9.6 0.00 0.00 0.00 47 1015.7
20260903104005 70 232 4.3 8.7 0.00 0.00 0.00 46 1015.7
20260903103507 70 282 3.5 7.0 0.00 0.00 0.00 46 1015.7
20260903103004 71 266 3.5 7.8 0.00 0.00 0.00 46 1015.6
20260903102504 71 288 4.3 8.7 0.00 0.00 0.00 45 1015.5
20260903102003 71 274 4.3 10.4 0.00 0.00 0.00 45 1015.4
20260903101502 71 231 4.3 10.4 0.00 0.00 0.00 46 1015.2
20260903101101 71 280 5.2 8.7 0.00 0.00 0.00 46 1015.1
20260903100600 71 232 4.3 8.7 0.00 0.00 0.00 46 1015.1
20260903100100 71 281 3.5 10.4 0.00 0.00 0.00 46 1015.1
20260903095559 71 269 5.2 10.4 0.00 0.00 0.00 47 1015.0
20260903095105 71 229 4.3 9.6 0.00 0.00 0.00 47 1014.9
20260903094600 71 293 4.3 13.0 0.00 0.00 0.00 47 1014.9
20260903094057 71 259 5.2 13.0 0.00 0.00 0.00 47 1014.8
20260903093557 71 277 6.1 13.0 0.00 0.00 0.00 47 1014.7
20260903093103 71 292 6.1 9.6 0.00 0.00 0.00 48 1014.7
20260903092555 72 263 4.3 9.6 0.00 0.00 0.00 48 1014.6
20260903092054 72 287 5.2 9.6 0.00 0.00 0.00 48 1014.5
20260903091554 72 256 4.3 8.7 0.00 0.00 0.00 47 1014.5
20260903091053 72 266 3.5 11.3 0.00 0.00 0.00 47 1014.4
20260903090555 72 284 4.3 10.4 0.00 0.00 0.00 47 1014.2
20260903090051 72 238 5.2 10.4 0.00 0.00 0.00 46 1014.1
20260903085551 73 238 5.2 10.4 0.00 0.00 0.00 46 1014.1
20260903085050 73 263 3.5 11.3 0.00 0.00 0.00 45 1013.9
20260903084555 73 273 4.3 13.9 0.00 0.00 0.00 45 1013.8
20260903084049 73 227 7.0 13.9 0.00 0.00 0.00 45 1013.7
20260903083547 73 271 6.1 12.2 0.00 0.00 0.00 45 1013.5
20260903083055 73 285 7.0 12.2 0.00 0.00 0.00 45 1013.3
20260903082547 74 273 6.1 11.3 0.00 0.00 0.00 44 1013.2
20260903082047 74 261 6.1 10.4 0.00 0.00 0.00 44 1013.1
20260903081603 74 281 6.1 13.0 0.00 0.00 0.00 43 1012.9
20260903081046 75 260 6.1 13.0 0.00 0.00 0.00 42 1012.8
20260903080544 75 239 5.2 12.2 0.00 0.00 0.00 42 1012.8
20260903080045 75 240 4.3 12.2 0.00 0.00 0.00 42 1012.7
20260903075544 75 282 7.0 12.2 0.00 0.00 0.00 41 1012.7
20260903075044 75 290 3.5 8.7 0.00 0.00 0.00 40 1012.5
20260903074548 75 236 3.5 8.7 0.00 0.00 0.00 40 1012.4
20260903074044 76 274 2.6 8.7 0.00 0.00 0.00 38 1012.2
20260903073544 76 241 2.6 8.7 0.00 0.00 0.00 38 1012.1
20260903073044 76 242 3.5 8.7 0.00 0.00 0.00 37 1012.0
20260903072546 77 211 1.7 8.7 0.00 0.00 0.00 38 1012.0
20260903072044 78 239 1.7 5.2 0.00 0.00 0.00 38 1012.0
20260903071551 78 266 1.7 6.1 0.00 0.00 0.00 37 1012.0
20260903071043 78 250 2.6 6.1 0.00 0.00 0.00 36 1011.9
20260903070545 79 226 1.7 9.6 0.00 0.00 0.00 35 1011.7
20260903070042 79 254 3.5 9.6 0.00 0.00 0.00 35 1011.7
20260903065543 79 246 3.5 9.6 0.00 0.00 0.00 34 1011.5
20260903065042 80 275 5.2 9.6 0.00 0.00 0.00 34 1011.5
20260903064548 80 280 3.5 9.6 0.00 0.00 0.00 34 1011.4
20260903064042 80 302 3.5 9.6 0.00 0.00 0.00 34 1011.3
20260903063541 80 242 3.5 9.6 0.00 0.00 0.00 34 1011.3
20260903063048 81 241 1.7 9.6 0.00 0.00 0.00 34 1011.1
20260903062542 81 268 5.2 9.6 0.00 0.00 0.00 33 1011.1
20260903062042 81 237 3.5 10.4 0.00 0.00 0.00 34 1011.0
20260903061542 82 258 4.3 10.4 0.00 0.00 0.00 33 1011.1
20260903061041 82 231 2.6 8.7 0.00 0.00 0.00 32 1011.1
20260903060541 82 240 2.6 8.7 0.00 0.00 0.00 32 1011.0
20260903060043 82 244 3.5 9.6 0.00 0.00 0.00 33 1011.0
20260903055544 82 229 2.6 9.6 0.00 0.00 0.00 32 1010.9
20260903055040 82 244 1.7 7.8 0.00 0.00 0.00 31 1010.9
20260903054540 82 251 0.9 7.8 0.00 0.00 0.00 31 1010.8
20260903054040 82 231 2.6 7.8 0.00 0.00 0.00 31 1010.7
20260903053539 82 215 3.5 8.7 0.00 0.00 0.00 30 1010.8
20260903053040 82 255 3.5 8.7 0.00 0.00 0.00 30 1010.7
20260903052540 82 200 3.5 7.8 0.00 0.00 0.00 29 1010.6
20260903052040 82 229 3.5 9.6 0.00 0.00 0.00 30 1010.6
20260903051540 82 220 3.5 13.0 0.00 0.00 0.00 30 1010.5
20260903051043 82 277 5.2 13.0 0.00 0.00 0.00 31 1010.5
20260903050539 82 246 6.1 10.4 0.00 0.00 0.00 30 1010.4
20260903050045 82 238 6.1 13.9 0.00 0.00 0.00 30 1010.3
20260903045539 82 217 4.3 13.9 0.00 0.00 0.00 29 1010.3
20260903045041 83 200 3.5 8.7 0.00 0.00 0.00 28 1010.2
20260903044545 83 227 2.6 8.7 0.00 0.00 0.00 29 1010.1
20260903044038 83 168 4.3 12.2 0.00 0.00 0.00 28 1010.1
20260903043539 83 226 3.5 12.2 0.00 0.00 0.00 28 1010.1
20260903043037 83 208 4.3 10.4 0.00 0.00 0.00 28 1010.1
20260903042537 83 234 3.5 9.6 0.00 0.00 0.00 28 1010.1
20260903042037 83 206 3.5 12.2 0.00 0.00 0.00 28 1010.0
20260903041544 83 223 5.2 13.9 0.00 0.00 0.00 28 1009.8
20260903041037 83 167 5.2 13.0 0.00 0.00 0.00 28 1009.7
20260903040535 83 236 3.5 7.8 0.00 0.00 0.00 30 1009.7
20260903040035 83 244 2.6 7.8 0.00 0.00 0.00 30 1009.6
20260903035534 83 191 3.5 8.7 0.00 0.00 0.00 29 1009.6
20260903035034 83 205 3.5 9.6 0.00 0.00 0.00 31 1009.5
20260903034537 83 196 4.3 11.3 0.00 0.00 0.00 31 1009.4
20260903034035 82 244 5.2 19.1 0.00 0.00 0.00 32 1009.4
20260903033533 82 240 7.8 19.1 0.00 0.00 0.00 31 1009.4
20260903033033 82 252 5.2 13.9 0.00 0.00 0.00 32 1009.4
20260903032535 82 256 7.0 13.0 0.00 0.00 0.00 31 1009.5
20260903032032 83 237 7.8 13.9 0.00 0.00 0.00 32 1009.6
20260903031536 83 220 6.1 13.0 0.00 0.00 0.00 31 1009.6
20260903031031 83 238 5.2 10.4 0.00 0.00 0.00 31 1009.6
20260903030530 83 169 4.3 9.6 0.00 0.00 0.00 32 1009.4
20260903030030 83 265 3.5 14.8 0.00 0.00 0.00 33 1009.3
20260903025532 83 235 7.0 14.8 0.00 0.00 0.00 31 1009.2
20260903025028 83 236 5.2 13.9 0.00 0.00 0.00 35 1009.2
20260903024527 83 244 5.2 13.0 0.00 0.00 0.00 35 1009.2
20260903024028 82 154 4.3 13.9 0.00 0.00 0.00 34 1009.2
20260903023530 82 132 4.3 13.9 0.00 0.00 0.00 35 1009.3
20260903023031 83 232 5.2 13.9 0.00 0.00 0.00 35 1009.3
20260903022524 83 248 7.0 16.5 0.00 0.00 0.00 35 1009.4
20260903022023 83 229 7.0 16.5 0.00 0.00 0.00 35 1009.4
20260903021524 82 246 7.8 17.4 0.00 0.00 0.00 36 1009.3
20260903021022 82 247 7.8 17.4 0.00 0.00 0.00 36 1009.2
20260903020523 82 249 6.1 19.1 0.00 0.00 0.00 37 1009.2
20260903020051 82 265 10.4 19.1 0.00 0.00 0.00 37 1009.3
20260903015518 82 246 7.8 17.4 0.00 0.00 0.00 37 1009.3
20260903015017 82 217 7.0 17.4 0.00 0.00 0.00 37 1009.2
20260903014516 82 255 3.5 13.0 0.00 0.00 0.00 39 1009.2
20260903014016 82 209 5.2 13.0 0.00 0.00 0.00 39 1009.2
20260903013514 82 207 5.2 18.2 0.00 0.00 0.00 39 1009.2
20260903013014 81 219 8.7 18.2 0.00 0.00 0.00 39 1009.2
20260903012512 81 250 7.8 16.5 0.00 0.00 0.00 39 1009.2
20260903012012 81 255 4.3 15.6 0.00 0.00 0.00 39 1009.1
20260903011511 81 284 6.1 17.4 0.00 0.00 0.00 40 1009.1
20260903011010 81 234 7.8 17.4 0.00 0.00 0.00 39 1008.9
20260903010511 81 246 8.7 14.8 0.00 0.00 0.00 40 1009.1
20260903010009 80 240 7.0 20.0 0.00 0.00 0.00 40 1009.1
20260903005507 80 293 7.0 20.0 0.00 0.00 0.00 40 1009.1
20260903005011 80 244 8.7 18.2 0.00 0.00 0.00 40 1009.2
20260903004504 80 237 8.7 16.5 0.00 0.00 0.00 40 1009.2
20260903004003 80 224 6.1 22.6 0.00 0.00 0.00 41 1009.2
20260903003501 79 347 13.0 23.5 0.00 0.00 0.00 40 1009.2
20260903003101 79 256 4.3 21.7 0.00 0.00 0.00 42 1009.3
20260903002559 79 269 13.0 25.2 0.00 0.00 0.00 41 1009.3
20260903002058 79 266 13.0 25.2 0.00 0.00 0.00 41 1009.1
20260903001608 78 303 8.7 21.7 0.00 0.00 0.00 42 1009.3
20260903001055 78 275 11.3 26.1 0.00 0.00 0.00 42 1009.2
20260903000554 78 282 13.9 26.1 0.00 0.00 0.00 41 1009.2
20260903000058 78 213 14.8 22.6 0.00 0.00 0.00 42 1009.2
20260902235553 78 225 10.4 20.0 0.00 0.00 0.00 42 1009.3
20260902235051 78 242 10.4 20.0 0.00 0.00 0.00 43 1009.3
20260902234549 78 254 8.7 20.0 0.00 0.00 0.00 43 1009.3
20260902234048 77 245 8.7 21.7 0.00 0.00 0.00 43 1009.3
20260902233548 77 299 13.9 21.7 0.00 0.00 0.00 43 1009.4
20260902233053 77 257 9.6 21.7 0.00 0.00 0.00 44 1009.6
20260902232544 76 301 9.6 23.5 0.00 0.00 0.00 45 1009.7
20260902232043 76 263 12.2 23.5 0.00 0.00 0.00 45 1009.7
20260902231542 75 282 7.8 20.9 0.00 0.00 0.00 48 1009.7
20260902231040 75 255 10.4 20.9 0.00 0.00 0.00 49 1009.7
20260902230538 74 244 4.3 12.2 0.00 0.00 0.00 52 1009.8
20260902230037 73 281 7.0 13.9 0.00 0.00 0.00 51 1009.8
20260902225540 73 320 7.0 14.8 0.00 0.00 0.00 52 1009.7
20260902225037 73 303 7.0 15.6 0.00 0.00 0.00 52 1009.7
20260902224534 72 279 5.2 15.6 0.00 0.00 0.00 53 1009.7
20260902224034 72 248 7.0 12.2 0.00 0.00 0.00 53 1009.8
20260902223531 71 278 4.3 13.0 0.00 0.00 0.00 53 1009.9
20260902223030 71 293 5.2 13.0 0.00 0.00 0.00 54 1009.9
20260902222531 71 242 5.2 11.3 0.00 0.00 0.00 54 1010.0
20260902222031 71 260 6.1 13.0 0.00 0.00 0.00 54 1010.0
20260902221542 71 273 5.2 13.0 0.00 0.00 0.00 55 1010.1
20260902221030 70 286 7.0 15.6 0.00 0.00 0.00 55 1010.2
20260902220526 70 257 5.2 15.6 0.00 0.00 0.00 56 1010.2
20260902220026 69 281 5.2 10.4 0.00 0.00 0.00 58 1010.2
20260902215528 68 277 4.3 9.6 0.00 0.00 0.00 60 1010.4
20260902215026 68 248 4.3 10.4 0.00 0.00 0.00 61 1010.3
20260902214526 67 283 5.2 10.4 0.00 0.00 0.00 63 1010.2
20260902214025 66 254 3.5 9.6 0.00 0.00 0.00 65 1010.2
20260902213525 65 246 3.5 9.6 0.00 0.00 0.00 66 1010.1
20260902213024 65 286 3.5 8.7 0.00 0.00 0.00 68 1010.1
20260902212524 64 264 2.6 6.1 0.00 0.00 0.00 69 1010.1
20260902212024 64 279 1.7 6.1 0.00 0.00 0.00 69 1010.0
20260902211523 63 271 1.7 5.2 0.00 0.00 0.00 69 1010.1
20260902211023 63 269 1.7 6.1 0.00 0.00 0.00 69 1010.0
20260902210522 63 242 1.7 6.1 0.00 0.00 0.00 69 1010.0
20260902210022 63 275 1.7 7.0 0.00 0.00 0.00 69 1010.0
20260902205520 63 328 1.7 5.2 0.00 0.00 0.00 69 1010.0
20260902205022 64 262 1.7 5.2 0.00 0.00 0.00 68 1009.9
20260902204519 64 296 1.7 4.3 0.00 0.00 0.00 68 1010.0
20260902204022 64 284 1.7 5.2 0.00 0.00 0.00 67 1009.9
20260902203519 64 261 1.7 7.0 0.00 0.00 0.00 67 1010.0
20260902203019 64 298 0.9 7.0 0.00 0.00 0.00 67 1009.9
20260902202518 64 262 2.6 7.8 0.00 0.00 0.00 67 1010.0
20260902202017 64 282 2.6 7.8 0.00 0.00 0.00 67 1010.0
20260902201517 64 288 1.7 6.1 0.00 0.00 0.00 67 1010.1
20260902201024 64 310 2.6 5.2 0.00 0.00 0.00 68 1010.0
20260902200515 64 22 1.7 4.3 0.00 0.00 0.00 67 1010.1
20260902200015 64 327 1.7 6.1 0.00 0.00 0.00 67 1010.1
20260902195519 64 221 1.7 7.0 0.00 0.00 0.00 68 1010.2
20260902195014 64 335 1.7 7.0 0.00 0.00 0.00 68 1010.2
20260902194525 64 318 0.9 7.0 0.00 0.00 0.00 68 1010.1
20260902194013 64 198 1.7 7.0 0.00 0.00 0.00 68 1010.2
20260902193513 64 297 3.5 7.0 0.00 0.00 0.00 67 1010.3
20260902193012 65 269 0.9 7.0 0.00 0.00 0.00 67 1010.3
20260902192511 65 313 2.6 7.0 0.00 0.00 0.00 67 1010.3
20260902192010 65 288 2.6 7.0 0.00 0.00 0.00 66 1010.3
20260902191515 65 319 3.5 7.8 0.00 0.00 0.00 66 1010.1
20260902191008 66 299 2.6 7.8 0.00 0.00 0.00 64 1010.1
20260902190507 66 289 2.6 7.0 0.00 0.00 0.00 63 1010.1
20260902190006 66 280 3.5 7.0 0.00 0.00 0.00 63 1010.3
20260902185505 66 265 3.5 9.6 0.00 0.00 0.00 62 1010.3
20260902185005 67 300 3.5 9.6 0.00 0.00 0.00 62 1010.2
20260902184504 67 232 2.6 7.0 0.00 0.00 0.00 62 1010.3
20260902184006 67 254 3.5 9.6 0.00 0.00 0.00 62 1010.4
20260902183503 67 262 3.5 8.7 0.00 0.00 0.00 62 1010.3
20260902183003 67 271 2.6 8.7 0.00 0.00 0.00 62 1010.5
20260902182503 67 254 3.5 7.8 0.00 0.00 0.00 62 1010.4
20260902182002 67 257 2.6 7.0 0.00 0.00 0.00 62 1010.5
20260902181609 67 236 3.5 7.0 0.00 0.00 0.00 61 1010.6
20260902181100 67 276 2.6 7.0 0.00 0.00 0.00 61 1010.5
20260902180559 68 271 2.6 7.0 0.00 0.00 0.00 60 1010.6
20260902180058 68 285 2.6 13.0 0.00 0.00 0.00 59 1010.6
20260902175556 68 246 5.2 13.0 0.00 0.00 0.00 59 1010.7
20260902175057 68 261 5.2 14.8 0.00 0.00 0.00 59 1010.9
20260902174555 68 281 7.0 14.8 0.00 0.00 0.00 59 1010.9
20260902174057 68 284 6.1 13.0 0.00 0.00 0.00 59 1010.8
20260902173554 68 277 5.2 12.2 0.00 0.00 0.00 59 1010.8
20260902173056 68 272 6.1 11.3 0.00 0.00 0.00 59 1010.9
20260902172553 68 242 7.0 12.2 0.00 0.00 0.00 59 1011.1
20260902172054 68 296 6.1 12.2 0.00 0.00 0.00 59 1011.1
20260902171605 68 265 6.1 15.6 0.00 0.00 0.00 59 1011.2
20260902171053 68 223 8.7 15.6 0.00 0.00 0.00 59 1011.3
20260902170549 68 267 7.8 14.8 0.00 0.00 0.00 59 1011.4
20260902170049 68 281 8.7 14.8 0.00 0.00 0.00 59 1011.5
20260902165547 69 266 7.0 13.0 0.00 0.00 0.00 58 1011.3
20260902165046 69 239 7.0 13.0 0.00 0.00 0.00 58 1011.5
20260902164558 69 232 6.1 15.6 0.00 0.00 0.00 58 1011.5
20260902164045 69 292 8.7 15.6 0.00 0.00 0.00 58 1011.6
20260902163545 68 260 7.0 12.2 0.00 0.00 0.00 58 1011.5
20260902163044 68 240 7.0 12.2 0.00 0.00 0.00 58 1011.5
20260902162543 69 250 4.3 18.2 0.00 0.00 0.00 57 1011.6
20260902162043 69 235 7.0 18.2 0.00 0.00 0.00 56 1011.7
20260902161546 69 257 6.1 13.9 0.00 0.00 0.00 56 1011.7
20260902161042 70 299 4.3 13.9 0.00 0.00 0.00 56 1011.7
20260902160540 70 313 6.1 14.8 0.00 0.00 0.00 56 1011.9
20260902160046 69 267 7.0 13.9 0.00 0.00 0.00 56 1012.2
20260902155538 68 240 5.2 10.4 0.00 0.00 0.00 56 1012.3
20260902155038 68 246 3.5 9.6 0.00 0.00 0.00 55 1012.2
20260902154550 68 273 3.5 7.0 0.00 0.00 0.00 55 1012.3
20260902154038 69 313 2.6 5.2 0.00 0.00 0.00 54 1012.3
20260902153534 69 324 2.6 8.7 0.00 0.00 0.00 54 1012.6
20260902153036 69 295 2.6 10.4 0.00 0.00 0.00 53 1012.7
20260902152532 69 243 4.3 10.4 0.00 0.00 0.00 53 1012.9